Data No, UTC Date,UTC Time,Latitude,Longitude,Course(deg),Temp(degC),Sal(psu)
530,2018/7/5,8:49,42-36.77N,141-36.91E,207,12.226,30.3503
531,2018/7/5,8:50,42-36.50N,141-36.86E,177,12.692,30.8211
532,2018/7/5,8:51,42-36.22N,141-36.93E,165,12.264,31.0211
533,2018/7/5,8:52,42-35.93N,141-37.05E,162,12.679,31.2274
534,2018/7/5,8:53,42-35.64N,141-37.18E,162,12.85,31.4391
535,2018/7/5,8:54,42-35.33N,141-37.31E,162,12.904,31.4578
536,2018/7/5,8:55,42-35.02N,141-37.44E,163,12.978,31.4457
537,2018/7/5,8:56,42-34.70N,141-37.56E,163,12.939,31.5119
538,2018/7/5,8:57,42-34.38N,141-37.69E,163,12.804,31.5969
539,2018/7/5,8:58,42-34.05N,141-37.81E,165,12.77,31.7314
540,2018/7/5,8:59,42-33.72N,141-37.93E,164,12.852,31.814
541,2018/7/5,9:00,42-33.39N,141-38.05E,164,12.922,31.7656
542,2018/7/5,9:01,42-33.04N,141-38.18E,164,13.024,31.669
543,2018/7/5,9:02,42-32.71N,141-38.30E,164,13.4,31.5423
544,2018/7/5,9:03,42-32.37N,141-38.42E,163,13.387,31.2113
545,2018/7/5,9:04,42-32.11N,141-38.69E,130,13.367,31.1903
546,2018/7/5,9:05,42-31.93N,141-39.07E,122,13.217,31.1726
547,2018/7/5,9:06,42-31.76N,141-39.46E,121,13.272,31.2729
548,2018/7/5,9:07,42-31.57N,141-39.86E,121,13.329,31.3241
549,2018/7/5,9:08,42-31.38N,141-40.27E,122,13.3,31.2904
550,2018/7/5,9:09,42-31.18N,141-40.67E,124,13.157,31.2539
551,2018/7/5,9:10,42-30.98N,141-41.07E,124,13.051,31.2771
552,2018/7/5,9:11,42-30.76N,141-41.49E,125,12.895,31.2952
553,2018/7/5,9:12,42-30.55N,141-41.88E,126,12.907,31.3831
554,2018/7/5,9:13,42-30.33N,141-42.28E,126,12.846,31.4186
555,2018/7/5,9:14,42-30.11N,141-42.68E,126,12.847,31.4326
556,2018/7/5,9:15,42-29.89N,141-43.09E,126,12.966,31.4688
557,2018/7/5,9:16,42-29.67N,141-43.49E,126,13.04,31.4288
558,2018/7/5,9:17,42-29.45N,141-43.89E,126,13.104,31.3103
559,2018/7/5,9:18,42-29.23N,141-44.28E,126,13.25,31.2984
560,2018/7/5,9:19,42-29.01N,141-44.68E,126,13.474,31.2501
561,2018/7/5,9:20,42-28.79N,141-45.08E,126,13.662,31.4102
562,2018/7/5,9:21,42-28.57N,141-45.49E,127,13.758,31.4908
563,2018/7/5,9:22,42-28.36N,141-45.88E,125,13.827,31.4593
564,2018/7/5,9:23,42-28.15N,141-46.28E,124,13.865,31.3401
565,2018/7/5,9:24,42-27.95N,141-46.69E,124,14.01,31.2005
566,2018/7/5,9:25,42-27.75N,141-47.10E,123,14.253,31.0805
567,2018/7/5,9:26,42-27.55N,141-47.50E,123,14.334,31.0474
568,2018/7/5,9:27,42-27.35N,141-47.89E,124,14.437,30.9882
569,2018/7/5,9:28,42-27.16N,141-48.28E,124,14.64,30.9199
570,2018/7/5,9:29,42-26.96N,141-48.67E,123,14.673,30.9176
571,2018/7/5,9:30,42-26.76N,141-49.07E,124,14.645,30.9154
572,2018/7/5,9:31,42-26.56N,141-49.46E,124,14.611,30.8078
573,2018/7/5,9:32,42-26.36N,141-49.84E,124,14.567,30.594
574,2018/7/5,9:33,42-26.16N,141-50.24E,124,14.587,30.4866
575,2018/7/5,9:34,42-25.96N,141-50.63E,124,14.6,30.5657
576,2018/7/5,9:35,42-25.77N,141-51.02E,124,14.528,30.8126
577,2018/7/5,9:36,42-25.58N,141-51.41E,124,14.51,31.0114
578,2018/7/5,9:37,42-25.38N,141-51.79E,124,14.494,31.0633
579,2018/7/5,9:38,42-25.18N,141-52.19E,124,14.547,31.0618
580,2018/7/5,9:39,42-24.99N,141-52.58E,124,14.56,30.9943
581,2018/7/5,9:40,42-24.79N,141-52.97E,123,14.508,30.8795
582,2018/7/5,9:41,42-24.60N,141-53.36E,123,14.564,30.7516
583,2018/7/5,9:42,42-24.40N,141-53.75E,123,14.657,30.3436
584,2018/7/5,9:43,42-24.21N,141-54.14E,124,14.724,29.8854
585,2018/7/5,9:44,42-24.01N,141-54.52E,124,14.812,29.8705
586,2018/7/5,9:45,42-23.82N,141-54.91E,123,14.971,29.7901
587,2018/7/5,9:46,42-23.62N,141-55.30E,124,14.989,30.1779
588,2018/7/5,9:47,42-23.43N,141-55.70E,123,15.055,30.6555
589,2018/7/5,9:48,42-23.23N,141-56.09E,124,15.096,30.9064
590,2018/7/5,9:49,42-23.04N,141-56.48E,123,15.117,30.9551
591,2018/7/5,9:50,42-22.84N,141-56.87E,124,15.127,30.957
592,2018/7/5,9:51,42-22.64N,141-57.26E,123,15.142,31.0124
593,2018/7/5,9:52,42-22.45N,141-57.65E,123,15.145,31.0492
594,2018/7/5,9:53,42-22.25N,141-58.05E,123,15.111,30.9573
595,2018/7/5,9:54,42-22.05N,141-58.44E,123,15.145,30.9525
596,2018/7/5,9:55,42-21.86N,141-58.83E,123,15.167,30.9353
597,2018/7/5,9:56,42-21.67N,141-59.23E,123,15.174,30.9329
598,2018/7/5,9:57,42-21.47N,141-59.62E,123,15.168,30.875
599,2018/7/5,9:58,42-21.27N,142-00.02E,123,15.095,30.8279
600,2018/7/5,9:59,42-21.07N,142-00.42E,123,15.016,30.9156
601,2018/7/5,10:00,42-20.88N,142-00.82E,123,14.98,31.1131
602,2018/7/5,10:01,42-20.68N,142-01.21E,123,14.967,31.185
603,2018/7/5,10:02,42-20.49N,142-01.61E,123,14.942,31.2801
604,2018/7/5,10:03,42-20.29N,142-02.00E,123,14.931,31.4045
605,2018/7/5,10:04,42-20.10N,142-02.40E,123,14.86,31.6157
606,2018/7/5,10:05,42-19.90N,142-02.80E,123,14.842,31.8556
607,2018/7/5,10:06,42-19.71N,142-03.19E,123,14.809,32.0291
608,2018/7/5,10:07,42-19.52N,142-03.59E,123,14.84,32.1286
609,2018/7/5,10:08,42-19.32N,142-03.99E,123,14.859,32.1908
610,2018/7/5,10:09,42-19.13N,142-04.39E,123,14.837,32.2413
611,2018/7/5,10:10,42-18.93N,142-04.79E,123,14.82,32.2686
612,2018/7/5,10:11,42-18.74N,142-05.19E,123,14.767,32.2985
613,2018/7/5,10:12,42-18.55N,142-05.59E,123,14.789,32.3376
614,2018/7/5,10:13,42-18.35N,142-05.98E,123,14.775,32.3718
615,2018/7/5,10:14,42-18.16N,142-06.39E,123,14.696,32.3936
616,2018/7/5,10:15,42-17.96N,142-06.79E,123,14.641,32.428
617,2018/7/5,10:16,42-17.77N,142-07.19E,123,14.594,32.4507
618,2018/7/5,10:17,42-17.57N,142-07.58E,123,14.467,32.5048
619,2018/7/5,10:18,42-17.38N,142-07.99E,123,14.54,32.5718
620,2018/7/5,10:19,42-17.19N,142-08.39E,122,14.744,32.6056
621,2018/7/5,10:20,42-17.00N,142-08.79E,122,14.791,32.613
622,2018/7/5,10:21,42-16.80N,142-09.19E,122,14.578,32.6126
623,2018/7/5,10:22,42-16.60N,142-09.60E,123,14.678,32.6336
624,2018/7/5,10:23,42-16.41N,142-09.99E,123,14.649,32.6505
625,2018/7/5,10:24,42-16.22N,142-10.40E,122,14.636,32.6204
626,2018/7/5,10:25,42-16.02N,142-10.81E,122,14.542,32.6825
627,2018/7/5,10:26,42-15.83N,142-11.21E,122,14.378,32.6063
628,2018/7/5,10:27,42-15.64N,142-11.61E,122,14.256,32.4229
629,2018/7/5,10:28,42-15.44N,142-12.00E,123,14.229,32.3496
630,2018/7/5,10:29,42-15.25N,142-12.39E,122,14.453,32.362
631,2018/7/5,10:30,42-15.06N,142-12.79E,123,14.521,32.1834
632,2018/7/5,10:31,42-14.87N,142-13.19E,123,14.453,31.8813
633,2018/7/5,10:32,42-14.67N,142-13.59E,123,14.423,31.8537
634,2018/7/5,10:33,42-14.49N,142-13.98E,123,14.404,31.9013
635,2018/7/5,10:34,42-14.29N,142-14.38E,122,14.318,31.892
636,2018/7/5,10:35,42-14.10N,142-14.78E,122,14.205,31.9057
637,2018/7/5,10:36,42-13.91N,142-15.18E,122,14.291,31.9736
638,2018/7/5,10:37,42-13.72N,142-15.57E,122,14.34,31.9868
639,2018/7/5,10:38,42-13.53N,142-15.97E,122,14.311,31.9532
640,2018/7/5,10:39,42-13.34N,142-16.36E,122,14.151,31.9615
641,2018/7/5,10:40,42-13.15N,142-16.76E,122,14.041,32.0275
642,2018/7/5,10:41,42-12.96N,142-17.16E,122,14.209,32.1021
643,2018/7/5,10:42,42-12.77N,142-17.56E,122,14.272,32.1207
644,2018/7/5,10:43,42-12.59N,142-17.95E,122,14.306,32.1439
645,2018/7/5,10:44,42-12.40N,142-18.35E,121,14.258,32.1798
646,2018/7/5,10:45,42-12.21N,142-18.75E,121,14.357,32.2374
647,2018/7/5,10:46,42-12.03N,142-19.15E,121,14.393,32.2901
648,2018/7/5,10:47,42-11.84N,142-19.55E,121,14.262,32.3293
649,2018/7/5,10:48,42-11.66N,142-19.96E,120,14.249,32.3255
650,2018/7/5,10:49,42-11.49N,142-20.35E,120,14.223,32.2678
651,2018/7/5,10:50,42-11.30N,142-20.76E,121,14.205,32.2066
652,2018/7/5,10:51,42-11.12N,142-21.16E,120,14.252,32.1444
653,2018/7/5,10:52,42-10.94N,142-21.57E,119,14.221,32.1052
654,2018/7/5,10:53,42-10.77N,142-21.99E,118,14.14,32.0833
655,2018/7/5,10:54,42-10.60N,142-22.42E,118,14.045,32.0544
656,2018/7/5,10:55,42-10.43N,142-22.84E,118,14.015,32.0069
657,2018/7/5,10:56,42-10.26N,142-23.25E,119,13.911,31.9386
658,2018/7/5,10:57,42-10.09N,142-23.67E,118,13.805,31.8754
659,2018/7/5,10:58,42-09.92N,142-24.09E,118,13.8,31.828
660,2018/7/5,10:59,42-09.75N,142-24.51E,118,13.732,31.7756
661,2018/7/5,11:00,42-09.57N,142-24.93E,119,13.444,31.7215
662,2018/7/5,11:01,42-09.40N,142-25.35E,119,13.467,31.6724
663,2018/7/5,11:02,42-09.22N,142-25.78E,119,13.495,31.6309
664,2018/7/5,11:03,42-09.04N,142-26.19E,119,13.509,31.6186
665,2018/7/5,11:04,42-08.86N,142-26.61E,119,13.481,31.6084
666,2018/7/5,11:05,42-08.68N,142-27.04E,119,13.419,31.6039
667,2018/7/5,11:06,42-08.50N,142-27.47E,119,13.36,31.6332
668,2018/7/5,11:07,42-08.32N,142-27.90E,119,13.427,31.6612
669,2018/7/5,11:08,42-08.14N,142-28.31E,119,13.511,31.6576
670,2018/7/5,11:09,42-07.96N,142-28.74E,120,13.567,31.6329
671,2018/7/5,11:10,42-07.77N,142-29.16E,120,13.663,31.6302
672,2018/7/5,11:11,42-07.59N,142-29.57E,120,13.583,31.6407
673,2018/7/5,11:12,42-07.41N,142-29.99E,120,13.562,31.6617
674,2018/7/5,11:13,42-07.22N,142-30.40E,120,13.591,31.6808
675,2018/7/5,11:14,42-07.04N,142-30.82E,120,13.636,31.6886
676,2018/7/5,11:15,42-06.85N,142-31.23E,120,13.754,31.7
677,2018/7/5,11:16,42-06.67N,142-31.64E,120,13.846,31.7006
678,2018/7/5,11:17,42-06.48N,142-32.05E,121,13.927,31.6932
679,2018/7/5,11:18,42-06.30N,142-32.45E,121,13.975,31.6925
680,2018/7/5,11:19,42-06.11N,142-32.87E,120,14.172,31.7094
681,2018/7/5,11:20,42-05.93N,142-33.28E,121,14.442,31.721
682,2018/7/5,11:21,42-05.74N,142-33.70E,121,14.641,31.7155
683,2018/7/5,11:22,42-05.56N,142-34.09E,121,14.759,31.6835
684,2018/7/5,11:23,42-05.37N,142-34.49E,121,14.581,31.6488
685,2018/7/5,11:24,42-05.20N,142-34.87E,120,14.334,31.5359
686,2018/7/5,11:25,42-05.04N,142-35.25E,120,14.544,31.3858
687,2018/7/5,11:26,42-04.87N,142-35.64E,120,14.721,31.3952
688,2018/7/5,11:27,42-04.70N,142-36.02E,120,14.635,31.4802
689,2018/7/5,11:28,42-04.53N,142-36.39E,120,14.229,31.5107
690,2018/7/5,11:29,42-04.37N,142-36.77E,120,14.174,31.6181
691,2018/7/5,11:30,42-04.20N,142-37.14E,120,14.014,31.6415
692,2018/7/5,11:31,42-04.03N,142-37.53E,120,13.569,31.7018
693,2018/7/5,11:32,42-03.86N,142-37.92E,120,13.274,31.8155
694,2018/7/5,11:33,42-03.70N,142-38.29E,120,13.238,31.8643
695,2018/7/5,11:34,42-03.53N,142-38.67E,120,13.227,31.8938
696,2018/7/5,11:35,42-03.36N,142-39.05E,120,13.114,31.8953
697,2018/7/5,11:36,42-03.20N,142-39.44E,120,13.141,31.9086
698,2018/7/5,11:37,42-03.03N,142-39.81E,120,13.221,31.9234
699,2018/7/5,11:38,42-02.87N,142-40.19E,119,13.236,31.94
700,2018/7/5,11:39,42-02.71N,142-40.56E,119,13.117,31.953
701,2018/7/5,11:40,42-02.55N,142-40.93E,120,13.038,31.9675
702,2018/7/5,11:41,42-02.39N,142-41.31E,119,12.91,31.9888
703,2018/7/5,11:42,42-02.20N,142-41.73E,120,12.836,31.9916
704,2018/7/5,11:43,42-02.04N,142-42.11E,119,12.867,31.9945
705,2018/7/5,11:44,42-01.88N,142-42.48E,120,12.92,32.007
706,2018/7/5,11:45,42-01.74N,142-42.81E,120,12.978,32.0063
707,2018/7/5,11:46,42-01.57N,142-43.20E,119,12.858,32.0243
708,2018/7/5,11:47,42-01.41N,142-43.58E,119,12.882,32.0944
709,2018/7/5,11:48,42-01.25N,142-43.96E,119,13.144,32.207
710,2018/7/5,11:49,42-01.09N,142-44.34E,119,13.407,32.3434
711,2018/7/5,11:50,42-00.93N,142-44.73E,119,13.542,32.501
712,2018/7/5,11:51,42-00.77N,142-45.10E,119,13.606,32.5657
713,2018/7/5,11:52,42-00.62N,142-45.48E,118,13.63,32.5939
714,2018/7/5,11:53,42-00.46N,142-45.86E,118,13.63,32.6208
715,2018/7/5,11:54,42-00.31N,142-46.24E,119,13.553,32.6377
716,2018/7/5,11:55,42-00.14N,142-46.62E,120,13.493,32.648
717,2018/7/5,11:56,41-59.96N,142-47.02E,121,13.455,32.6558
718,2018/7/5,11:57,41-59.80N,142-47.38E,121,13.432,32.6638
719,2018/7/5,11:58,41-59.63N,142-47.75E,121,13.265,32.6691
720,2018/7/5,11:59,41-59.46N,142-48.12E,121,13.17,32.6477
721,2018/7/5,12:00,41-59.29N,142-48.49E,121,13.126,32.6233
722,2018/7/5,12:01,41-59.12N,142-48.86E,122,13.144,32.6318
723,2018/7/5,12:02,41-58.95N,142-49.23E,122,12.905,32.6631
724,2018/7/5,12:03,41-58.77N,142-49.61E,122,12.387,32.613
725,2018/7/5,12:04,41-58.60N,142-49.98E,121,11.934,32.4998
726,2018/7/5,12:05,41-58.43N,142-50.34E,120,11.789,32.4234
727,2018/7/5,12:06,41-58.27N,142-50.70E,121,11.646,32.3624
728,2018/7/5,12:07,41-58.10N,142-51.07E,121,11.431,32.2984
729,2018/7/5,12:08,41-57.93N,142-51.44E,121,11.486,32.2685
730,2018/7/5,12:09,41-57.77N,142-51.79E,121,11.326,32.2724
731,2018/7/5,12:10,41-57.61N,142-52.15E,121,11.316,32.2708
732,2018/7/5,12:11,41-57.44N,142-52.51E,121,11.261,32.2733
733,2018/7/5,12:12,41-57.28N,142-52.87E,121,11.388,32.2745
734,2018/7/5,12:13,41-57.11N,142-53.23E,121,11.346,32.2592
735,2018/7/5,12:14,41-56.94N,142-53.61E,121,11.306,32.2591
736,2018/7/5,12:15,41-56.78N,142-53.96E,121,11.123,32.2801
737,2018/7/5,12:16,41-56.61N,142-54.32E,121,11.194,32.2963
738,2018/7/5,12:17,41-56.45N,142-54.67E,120,11.2,32.319
739,2018/7/5,12:18,41-56.29N,142-55.03E,120,11.056,32.3481
740,2018/7/5,12:19,41-56.13N,142-55.39E,121,11.043,32.3779
741,2018/7/5,12:20,41-55.97N,142-55.74E,121,11.127,32.4047
742,2018/7/5,12:21,41-55.80N,142-56.10E,120,11.224,32.4412
743,2018/7/5,12:22,41-55.64N,142-56.47E,121,11.262,32.476
744,2018/7/5,12:23,41-55.47N,142-56.84E,121,11.393,32.5039
745,2018/7/5,12:24,41-55.30N,142-57.21E,121,11.466,32.5356
746,2018/7/5,12:25,41-55.15N,142-57.58E,118,11.553,32.5633
747,2018/7/5,12:26,41-54.99N,142-57.95E,119,11.717,32.5695
748,2018/7/5,12:27,41-54.83N,142-58.31E,120,11.774,32.3399
749,2018/7/5,12:28,41-54.67N,142-58.67E,120,11.724,32.2069
750,2018/7/5,12:29,41-54.52N,142-59.04E,120,11.53,32.1783
751,2018/7/5,12:30,41-54.36N,142-59.40E,120,11.516,32.1852
752,2018/7/5,12:31,41-54.17N,142-59.81E,121,11.458,32.1995
753,2018/7/5,12:32,41-54.01N,143-00.16E,121,11.62,32.2093
754,2018/7/5,12:33,41-53.84N,143-00.53E,121,11.928,32.214
755,2018/7/5,12:34,41-53.68N,143-00.88E,121,12.075,32.1982
756,2018/7/5,12:35,41-53.52N,143-01.23E,121,12.197,32.1569
757,2018/7/5,12:36,41-53.36N,143-01.59E,121,12.13,32.1365
758,2018/7/5,12:37,41-53.19N,143-01.95E,121,12.164,32.1205
759,2018/7/5,12:38,41-53.03N,143-02.30E,121,11.989,32.1207
760,2018/7/5,12:39,41-52.89N,143-02.61E,121,11.977,32.1308
761,2018/7/5,12:40,41-52.72N,143-02.97E,122,11.643,32.1461
762,2018/7/5,12:41,41-52.55N,143-03.32E,121,11.608,32.1557
763,2018/7/5,12:42,41-52.39N,143-03.67E,121,11.405,32.1961
764,2018/7/5,12:43,41-52.22N,143-04.03E,122,11.491,32.1994
765,2018/7/5,12:44,41-52.05N,143-04.37E,122,11.417,32.2148
766,2018/7/5,12:45,41-51.88N,143-04.72E,122,11.344,32.2171
767,2018/7/5,12:46,41-51.72N,143-05.07E,122,11.345,32.2262
768,2018/7/5,12:47,41-51.55N,143-05.42E,123,11.338,32.2315
769,2018/7/5,12:48,41-51.38N,143-05.76E,123,11.428,32.2408
770,2018/7/5,12:49,41-51.22N,143-06.09E,123,11.212,32.2329
771,2018/7/5,12:50,41-51.05N,143-06.42E,123,11.622,32.244
772,2018/7/5,12:51,41-50.88N,143-06.76E,124,12.12,32.2563
773,2018/7/5,12:52,41-50.72N,143-07.09E,123,11.603,32.1764
774,2018/7/5,12:53,41-50.55N,143-07.42E,123,11.455,32.1448
775,2018/7/5,12:54,41-50.39N,143-07.75E,123,11.357,32.1578
776,2018/7/5,12:55,41-50.23N,143-08.07E,123,11.31,32.1232
777,2018/7/5,12:56,41-50.06N,143-08.39E,123,11.315,32.0746
778,2018/7/5,12:57,41-49.90N,143-08.71E,123,11.289,32.0274
779,2018/7/5,12:58,41-49.75N,143-09.03E,123,11.234,31.9961
780,2018/7/5,12:59,41-49.58N,143-09.36E,123,11.201,32.0002
781,2018/7/5,13:00,41-49.42N,143-09.68E,124,11.093,32.0102
782,2018/7/5,13:01,41-49.26N,143-09.99E,124,11.103,32.0251
783,2018/7/5,13:02,41-49.09N,143-10.31E,124,11.088,32.0302
784,2018/7/5,13:03,41-48.92N,143-10.64E,125,11.055,32.0283
785,2018/7/5,13:04,41-48.74N,143-10.96E,125,11.039,32.0388
786,2018/7/5,13:05,41-48.57N,143-11.28E,125,11.036,32.0536
787,2018/7/5,13:06,41-48.40N,143-11.60E,125,10.982,32.0778
788,2018/7/5,13:07,41-48.22N,143-11.92E,125,10.929,32.1005
789,2018/7/5,13:08,41-48.04N,143-12.25E,126,10.894,32.148
790,2018/7/5,13:09,41-47.86N,143-12.57E,127,10.859,32.1953
791,2018/7/5,13:10,41-47.69N,143-12.88E,125,10.821,32.2436
792,2018/7/5,13:11,41-47.52N,143-13.21E,123,10.386,32.2941
793,2018/7/5,13:12,41-47.35N,143-13.53E,125,10.698,32.4244
794,2018/7/5,13:13,41-47.18N,143-13.85E,125,10.802,32.6037
795,2018/7/5,13:14,41-47.01N,143-14.17E,126,10.883,32.6747
796,2018/7/5,13:15,41-46.84N,143-14.48E,125,10.789,32.7023
797,2018/7/5,13:16,41-46.68N,143-14.79E,124,10.637,32.7236
798,2018/7/5,13:17,41-46.52N,143-15.10E,125,10.538,32.7336
799,2018/7/5,13:18,41-46.35N,143-15.41E,126,10.407,32.7365
800,2018/7/5,13:19,41-46.18N,143-15.73E,125,10.452,32.7349
801,2018/7/5,13:20,41-46.01N,143-16.04E,124,10.39,32.7386
802,2018/7/5,13:21,41-45.86N,143-16.36E,119,10.236,32.74
803,2018/7/5,13:22,41-45.83N,143-16.70E,84,10.097,32.7191
804,2018/7/5,13:23,41-45.95N,143-16.98E,48,10.087,32.6926
805,2018/7/5,13:24,41-46.15N,143-17.18E,34,10.183,32.6858
806,2018/7/5,13:25,41-46.36N,143-17.35E,29,10.172,32.6834
807,2018/7/5,13:26,41-46.58N,143-17.53E,31,10.256,32.6887
808,2018/7/5,13:27,41-46.81N,143-17.72E,31,10.377,32.703
809,2018/7/5,13:28,41-47.04N,143-17.90E,30,10.489,32.7097
810,2018/7/5,13:29,41-47.27N,143-18.08E,31,10.576,32.7142
811,2018/7/5,13:30,41-47.49N,143-18.27E,32,10.575,32.7164
812,2018/7/5,13:31,41-47.72N,143-18.47E,34,10.668,32.7175
813,2018/7/5,13:32,41-47.94N,143-18.67E,34,10.713,32.7181
814,2018/7/5,13:33,41-48.17N,143-18.88E,33,10.776,32.7173
815,2018/7/5,13:34,41-48.40N,143-19.08E,34,10.806,32.7173
816,2018/7/5,13:35,41-48.62N,143-19.29E,34,10.855,32.7156
817,2018/7/5,13:36,41-48.85N,143-19.50E,33,10.927,32.7164
818,2018/7/5,13:37,41-49.08N,143-19.70E,33,10.977,32.7185
819,2018/7/5,13:38,41-49.31N,143-19.92E,34,11.082,32.7237
820,2018/7/5,13:39,41-49.55N,143-20.12E,33,11.115,32.7279
821,2018/7/5,13:40,41-49.78N,143-20.33E,34,11.172,32.7336
822,2018/7/5,13:41,41-50.01N,143-20.54E,33,11.27,32.7404
823,2018/7/5,13:42,41-50.25N,143-20.76E,34,11.292,32.7469
824,2018/7/5,13:43,41-50.48N,143-20.98E,34,11.346,32.7515
825,2018/7/5,13:44,41-50.72N,143-21.18E,32,11.297,32.7551
826,2018/7/5,13:45,41-50.97N,143-21.37E,30,11.302,32.759
827,2018/7/5,13:46,41-51.21N,143-21.57E,31,11.239,32.7632
828,2018/7/5,13:47,41-51.45N,143-21.77E,33,11.179,32.7604
829,2018/7/5,13:48,41-51.69N,143-21.97E,31,11.201,32.7553
830,2018/7/5,13:49,41-51.92N,143-22.17E,33,11.13,32.7512
831,2018/7/5,13:50,41-52.15N,143-22.36E,31,11.165,32.741
832,2018/7/5,13:51,41-52.39N,143-22.56E,30,11.117,32.7361
833,2018/7/5,13:52,41-52.62N,143-22.75E,30,10.971,32.7262
834,2018/7/5,13:53,41-52.86N,143-22.95E,31,10.968,32.7007
835,2018/7/5,13:54,41-53.10N,143-23.14E,31,10.983,32.6649
836,2018/7/5,13:55,41-53.34N,143-23.34E,31,10.945,32.642
837,2018/7/5,13:56,41-53.58N,143-23.54E,31,10.994,32.6319
838,2018/7/5,13:57,41-53.82N,143-23.73E,31,10.907,32.6291
839,2018/7/5,13:58,41-54.06N,143-23.93E,31,10.889,32.6224
840,2018/7/5,13:59,41-54.30N,143-24.13E,32,10.856,32.6152
841,2018/7/5,14:00,41-54.54N,143-24.32E,31,10.931,32.6064
842,2018/7/5,14:01,41-54.78N,143-24.52E,30,10.995,32.6023
843,2018/7/5,14:02,41-55.03N,143-24.72E,30,11.043,32.596
844,2018/7/5,14:03,41-55.28N,143-24.91E,30,11.056,32.5942
845,2018/7/5,14:04,41-55.52N,143-25.10E,30,11.041,32.5933
846,2018/7/5,14:05,41-55.75N,143-25.30E,32,11.06,32.5949
847,2018/7/5,14:06,41-55.99N,143-25.50E,32,10.978,32.5968
848,2018/7/5,14:07,41-56.23N,143-25.70E,31,10.966,32.6013
849,2018/7/5,14:08,41-56.47N,143-25.89E,30,11.011,32.6128
850,2018/7/5,14:09,41-56.71N,143-26.09E,32,10.996,32.6274
851,2018/7/5,14:10,41-56.95N,143-26.28E,31,11.025,32.6351
852,2018/7/5,14:11,41-57.19N,143-26.47E,30,11.056,32.6355
853,2018/7/5,14:12,41-57.43N,143-26.67E,32,11.117,32.6325
854,2018/7/5,14:13,41-57.66N,143-26.87E,32,11.136,32.6296
855,2018/7/5,14:14,41-57.91N,143-27.08E,31,11.107,32.6252
856,2018/7/5,14:15,41-58.14N,143-27.27E,30,11.108,32.6232
857,2018/7/5,14:16,41-58.38N,143-27.46E,31,11.101,32.6223
858,2018/7/5,14:17,41-58.62N,143-27.66E,33,11.066,32.6216
859,2018/7/5,14:18,41-58.85N,143-27.86E,32,11.127,32.6202
860,2018/7/5,14:19,41-59.09N,143-28.06E,31,11.02,32.6208
861,2018/7/5,14:20,41-59.34N,143-28.27E,31,11.007,32.6279
862,2018/7/5,14:21,41-59.58N,143-28.46E,30,11.15,32.6432
863,2018/7/5,14:22,41-59.82N,143-28.66E,31,11.201,32.6439
864,2018/7/5,14:23,42-00.07N,143-28.86E,31,11.249,32.6397
865,2018/7/5,14:24,42-00.32N,143-29.07E,32,11.269,32.6393
866,2018/7/5,14:25,42-00.57N,143-29.28E,31,11.344,32.6395
867,2018/7/5,14:26,42-00.82N,143-29.48E,30,11.39,32.6381
868,2018/7/5,14:27,42-01.07N,143-29.68E,32,11.435,32.6297
869,2018/7/5,14:28,42-01.31N,143-29.89E,30,11.458,32.6054
870,2018/7/5,14:29,42-01.56N,143-30.08E,29,11.507,32.583
871,2018/7/5,14:30,42-01.82N,143-30.27E,29,11.495,32.5634
872,2018/7/5,14:31,42-02.06N,143-30.47E,32,11.479,32.543
873,2018/7/5,14:32,42-02.31N,143-30.68E,32,11.479,32.5296
874,2018/7/5,14:33,42-02.55N,143-30.88E,31,11.398,32.5128
875,2018/7/5,14:34,42-02.80N,143-31.09E,32,11.394,32.4869
876,2018/7/5,14:35,42-03.06N,143-31.31E,31,11.312,32.4689
877,2018/7/5,14:36,42-03.32N,143-31.51E,30,11.288,32.4545
878,2018/7/5,14:37,42-03.57N,143-31.71E,30,11.273,32.4599
879,2018/7/5,14:38,42-03.83N,143-31.92E,30,11.024,32.4762
880,2018/7/5,14:39,42-04.09N,143-32.12E,30,11.018,32.4837
881,2018/7/5,14:40,42-04.35N,143-32.33E,30,10.959,32.4781
882,2018/7/5,14:41,42-04.61N,143-32.54E,31,10.945,32.4603
883,2018/7/5,14:42,42-04.87N,143-32.75E,32,10.832,32.4324
884,2018/7/5,14:43,42-05.12N,143-32.96E,31,10.782,32.4027
885,2018/7/5,14:44,42-05.38N,143-33.17E,30,10.817,32.3684
886,2018/7/5,14:45,42-05.64N,143-33.37E,30,10.774,32.3561
887,2018/7/5,14:46,42-05.90N,143-33.58E,29,10.7,32.3509
888,2018/7/5,14:47,42-06.16N,143-33.77E,28,10.699,32.344
889,2018/7/5,14:48,42-06.42N,143-33.97E,30,10.777,32.3382
890,2018/7/5,14:49,42-06.67N,143-34.16E,30,10.721,32.3328
891,2018/7/5,14:50,42-06.92N,143-34.36E,29,10.598,32.3121
892,2018/7/5,14:51,42-07.18N,143-34.55E,28,10.621,32.2779
893,2018/7/5,14:52,42-07.44N,143-34.76E,30,10.652,32.2606
894,2018/7/5,14:53,42-07.71N,143-34.97E,30,10.579,32.2574
895,2018/7/5,14:54,42-07.97N,143-35.17E,30,10.502,32.2639
896,2018/7/5,14:55,42-08.23N,143-35.38E,29,10.435,32.2689
897,2018/7/5,14:56,42-08.49N,143-35.58E,29,10.376,32.2652
898,2018/7/5,14:57,42-08.76N,143-35.77E,29,10.283,32.2594
899,2018/7/5,14:58,42-09.01N,143-35.98E,30,10.276,32.2456
900,2018/7/5,14:59,42-09.27N,143-36.18E,29,10.194,32.24
901,2018/7/5,15:00,42-09.53N,143-36.39E,30,10.104,32.228
902,2018/7/5,15:01,42-09.79N,143-36.59E,29,10.055,32.2215
903,2018/7/5,15:02,42-10.05N,143-36.79E,30,10.04,32.2038
904,2018/7/5,15:03,42-10.31N,143-37.00E,30,9.935,32.185
905,2018/7/5,15:04,42-10.57N,143-37.20E,30,9.982,32.1585
906,2018/7/5,15:05,42-10.84N,143-37.41E,30,9.989,32.1596
907,2018/7/5,15:06,42-11.10N,143-37.62E,30,10.042,32.1696
908,2018/7/5,15:07,42-11.36N,143-37.83E,30,10.095,32.1709
909,2018/7/5,15:08,42-11.62N,143-38.03E,29,10.048,32.1729
910,2018/7/5,15:09,42-11.89N,143-38.25E,31,10.042,32.1692
911,2018/7/5,15:10,42-12.15N,143-38.46E,31,10.057,32.1517
912,2018/7/5,15:11,42-12.41N,143-38.68E,32,10.051,32.1262
913,2018/7/5,15:12,42-12.66N,143-38.90E,32,10.065,32.126
914,2018/7/5,15:13,42-12.92N,143-39.12E,32,9.978,32.1208
915,2018/7/5,15:14,42-13.17N,143-39.34E,33,9.967,32.1171
916,2018/7/5,15:15,42-13.42N,143-39.57E,34,9.961,32.1161
917,2018/7/5,15:16,42-13.67N,143-39.81E,34,10.023,32.1205
918,2018/7/5,15:17,42-13.92N,143-40.04E,34,9.934,32.1167
919,2018/7/5,15:18,42-14.16N,143-40.27E,35,9.887,32.1064
920,2018/7/5,15:19,42-14.40N,143-40.50E,35,9.913,32.0902
921,2018/7/5,15:20,42-14.65N,143-40.73E,35,9.848,32.0782
922,2018/7/5,15:21,42-14.90N,143-40.97E,34,9.798,32.0709
923,2018/7/5,15:22,42-15.15N,143-41.20E,34,9.76,32.0695
924,2018/7/5,15:23,42-15.41N,143-41.43E,34,9.571,32.0747
925,2018/7/5,15:24,42-15.66N,143-41.67E,34,9.486,32.1087
926,2018/7/5,15:25,42-15.91N,143-41.91E,34,9.507,32.1804
927,2018/7/5,15:26,42-16.16N,143-42.14E,34,9.49,32.2059
928,2018/7/5,15:27,42-16.42N,143-42.37E,34,9.386,32.2142
929,2018/7/5,15:28,42-16.67N,143-42.60E,34,9.553,32.2209
930,2018/7/5,15:29,42-16.92N,143-42.84E,34,9.713,32.1827
931,2018/7/5,15:30,42-17.17N,143-43.07E,34,9.906,32.1591
932,2018/7/5,15:31,42-17.42N,143-43.30E,34,10.081,32.1521